Regional Weather Roundup
Issued by NWS

Home | Current Version | Previous Version | Graphics & Text | Print | Product List | Glossary Off
Versions: 1 2 3 4 5 6 7 8 9 10 11 12 13 14 15 16 17 18 19 20 21 22 23 24 25 26 27 28 29 30 31 32 33 34 35 36 37 38 39 40 41 42 43 44 45 46 47 48 49 50

000
ASUS45 KBOU 300907
RWRCO

WEATHER ROUNDUP FOR COLORADO
NATIONAL WEATHER SERVICE DENVER/BOULDER CO
200 AM MST FRI JAN 30 2015

NOTE: "FAIR" INDICATES FEW OR NO CLOUDS BELOW 12000 FEET WITH NO
SIGNIFICANT WEATHER AND/OR OBSTRUCTIONS TO VISIBILITY.

COZ001>005-013-030-031-301000-
...NORTHWEST COLORADO...

CITY           SKY/WX    TMP DP  RH WIND       PRES   REMARKS
CRAIG            N/A     30  28  92 CALM      30.29F
HAYDEN         CLOUDY    32  25  74 E7        30.28S WCI  26
MEEKER         LGT RAIN  34  29  82 CALM      30.28F
MOUNT WERNER   NOT AVBL
STEAMBOAT SPGS CLOUDY    27  24  86 CALM      30.29S
WALDEN         CLOUDY    23  19  86 SE6       30.28S WCI  16
$$

COZ006>008-011-301000-
...WEST CENTRAL VALLEYS...

CITY           SKY/WX    TMP DP  RH WIND       PRES   REMARKS
GRAND JUNCTION CLOUDY    39  32  76 CALM      30.24F
MONTROSE       CLOUDY    36  28  73 S6        30.27F
EAGLE          CLOUDY    34  28  80 CALM      30.32S
RIFLE          CLOUDY    36  29  75 E3        30.27F
DELTA          CLOUDY    42  31  65 E5        30.26S
NUCLA          RAIN      39  36  87 NE7       30.29F
$$

COZ017>023-064>068-301000-
...SOUTHWEST COLORADO...

CITY           SKY/WX    TMP DP  RH WIND       PRES   REMARKS
DURANGO        CLOUDY    35  33  92 E5        30.31F WCI  31
CORTEZ         CLOUDY    44  31  60 W8        30.26F
PAGOSA SPRINGS LGT SNOW  33  33 100 S6        30.34S WCI  28
TELLURIDE      LGT SNOW  32  31  98 CALM      30.31S
WOLF CREEK PAS NOT AVBL
$$

COZ009-010-012-014-032>034-037-058>063-301000-
...CENTRAL COLORADO...

CITY           SKY/WX    TMP DP  RH WIND       PRES   REMARKS
ASPEN          MOCLDY    28  22  78 CALM      30.28F
BUENA VISTA    CLOUDY    29  24  81 CALM      30.35S
COPPER MTN     LGT SNOW  25  19  80 CALM      30.34F
BERTHOUD PASS  CLOUDY    18  12  79 N13       30.36S WCI   4
COTTONWOOD PAS CLOUDY    28  25  86 CALM      30.33F
GUNNISON       MOCLDY    27  19  74 NE6       30.33F WCI  20
KREMMLING      CLOUDY    23  19  86 CALM      30.32F
LEADVILLE      CLOUDY    20  18  92 CALM      30.33S
MONARCH PASS   CLOUDY    23  21  93 MISG      30.46S
SALIDA         CLOUDY    32  28  84 CALM      30.43S
SUNLIGHT       CLOUDY    28  27  93 CALM      30.34F
WILKERSON PASS CLOUDY    23  21  93 SW13G21   30.34S FOG     WCI  11
$$

COZ069>075-301000-
...SAN LUIS VALLEY/SANGRE DE CRISTO MOUNTAINS...

CITY           SKY/WX    TMP DP  RH WIND       PRES   REMARKS
ALAMOSA        LGT SNOW  31  29  92 S6        30.34F FOG     WCI  25
LA VETA PASS   LGT SNOW  23  21  93 S10G22    30.33F WCI  12
SAGUACHE       LGT SNOW  32  32 100 SE8       30.36S WCI  25
$$

COZ035-036-038>040-301000-
...NORTHERN COLORADO FRONT RANGE...

CITY           SKY/WX    TMP DP  RH WIND       PRES   REMARKS
DENVER INTL AP CLOUDY    36  23  59 SW6       30.26F
DMNS CITY PARK   N/A     35  24  64 NW2       30.25F
AURORA         MOCLDY    38  23  55 S16       30.25F
FRONT RANGE AP NOT AVBL
ERIE MUNI ARPT CLOUDY    28  27  94 CALM      30.26F
BOULDER MUN AP CLOUDY    34  23  64 CALM      30.26F
CENTENNIAL     CLOUDY    36  24  62 S7        30.24F
BROOMFIELD     CLOUDY    34  27  75 NW8       30.26F WCI  27
FORT COLLINS   CLOUDY    27  21  80 CALM      30.28F
LONGMONT       CLOUDY    31  26  83 CALM      30.28F
$$

COZ041-046-047-076>085-087-088-301000-
...PIKES PEAK/PALMER DIVIDE AND SOUTHERN FOOTHILLS...

CITY           SKY/WX    TMP DP  RH WIND       PRES   REMARKS
COLO. SPRINGS  CLOUDY    33  23  66 E7        30.33F WCI  27
A. F. ACADEMY  CLOUDY    32  22  66 SE3       30.31F
ELLICOTT       CLOUDY   N/A N/A N/A S10       30.31F
FALCON         CLOUDY    30  22  72 S3        30.32F
FORT CARSON    CLOUDY    33  23  67 E3        30.31F
LIMON          MOCLDY    27  20  75 SE12      30.33F WCI  17
MONUMENT HILL  CLOUDY    30  23  74 S15       30.27F WCI  19
TRINIDAD       CLOUDY    39  27  62 SW12      30.34F
$$

COZ042>045-048>051-090-091-301000-
...NORTHEAST COLORADO...

CITY           SKY/WX    TMP DP  RH WIND       PRES   REMARKS
GREELEY ARPT   CLOUDY    28  19  69 NE3       30.26F
AKRON          CLOUDY    35  19  52 S14       30.32S WCI  26
BURLINGTON     MOCLDY    30  20  66 S14       30.38S WCI  19
WRAY           MOCLDY    32  24  72 S3        30.38S
STERLING       CLOUDY    32  23  69 S6        30.31F WCI  26
HOLYOKE        NOT AVBL
FORT MORGAN    CLOUDY    32  24  71 SE8       30.31F WCI  25
$$

COZ086-089-092>099-301000-
...SOUTHEAST COLORADO...

CITY           SKY/WX    TMP DP  RH WIND       PRES   REMARKS
PUEBLO         CLOUDY    35  25  66 CALM      30.33F
LA JUNTA       CLOUDY    41  27  57 SE7       30.35F
LAMAR          CLOUDY    39  25  57 S10       30.37F
SPRINGFIELD      N/A     35  28  75 S8        30.40F WCI  29
$$



USA.gov is the U.S. government's official web portal to all federal, state and local government web resources and services.